DW2182 Weather Reports


time (UTC)temp
C
wind
direction
speed
KPH
gust
KPH
rain 1hr
cm
rain 24hr
cm
rain mn
cm
humidity
%
barometer
mb
20260506024517 7 158 9.7 22.5 0.00 0.00 0.00 44 1013.2
20260506023517 8 158 6.4 16.1 0.00 0.00 0.00 44 1013.2
20260506022517 8 158 4.8 14.5 0.00 0.00 0.00 44 1012.9
20260506021517 8 135 6.4 14.5 0.00 0.00 0.00 43 1012.6
20260506020517 8 158 6.4 16.1 0.00 0.00 0.00 43 1012.5
20260506015557 8 135 4.8 12.9 0.00 0.00 0.00 43 1012.4
20260506014517 8 135 8.0 17.7 0.00 0.00 0.00 42 1012.3
20260506013517 9 135 8.0 14.5 0.00 0.00 0.00 41 1012.1
20260506012537 9 135 8.0 16.1 0.00 0.00 0.00 40 1012.0
20260506011517 9 158 6.4 17.7 0.00 0.00 0.00 40 1011.7
20260506010516 10 158 9.7 19.3 0.00 0.00 0.00 39 1011.8
20260506005517 10 135 8.0 19.3 0.00 0.00 0.00 39 1011.5
20260506004517 10 135 11.3 24.1 0.00 0.00 0.00 37 1011.3
20260506003517 10 135 6.4 16.1 0.00 0.00 0.00 37 1011.2
20260506002516 10 158 9.7 20.9 0.00 0.00 0.00 37 1011.1
20260506001516 10 135 11.3 17.7 0.00 0.00 0.00 36 1011.0
20260506000518 10 135 8.0 20.9 0.00 0.00 0.00 35 1011.0
20260505235517 10 135 8.0 16.1 0.00 0.00 0.00 36 1010.8
20260505234517 11 135 9.7 17.7 0.00 0.00 0.00 35 1010.8
20260505233517 11 135 11.3 25.7 0.00 0.00 0.00 34 1010.7
20260505232516 11 135 11.3 25.7 0.00 0.00 0.00 34 1010.7
20260505231517 11 135 11.3 20.9 0.00 0.00 0.00 34 1010.7
20260505230516 11 135 9.7 17.7 0.00 0.00 0.00 35 1010.5
20260505225517 11 135 9.7 22.5 0.00 0.00 0.00 35 1010.4
20260505224516 11 135 12.9 29.0 0.00 0.00 0.00 34 1010.5
20260505223517 11 135 9.7 19.3 0.00 0.00 0.00 34 1010.5
20260505222516 12 135 11.3 17.7 0.00 0.00 0.00 34 1010.5
20260505221517 12 135 9.7 19.3 0.00 0.00 0.00 33 1010.5
20260505220516 12 135 9.7 19.3 0.00 0.00 0.00 33 1010.5
20260505215516 12 135 9.7 19.3 0.00 0.00 0.00 34 1010.6
20260505214516 12 135 12.9 24.1 0.00 0.00 0.00 32 1010.6
20260505213516 12 135 12.9 22.5 0.00 0.00 0.00 33 1010.7
20260505212517 12 135 9.7 17.7 0.00 0.00 0.00 33 1010.5
20260505211516 12 135 9.7 20.9 0.00 0.00 0.00 32 1010.7
20260505210516 12 135 8.0 14.5 0.00 0.00 0.00 32 1010.6
20260505205516 12 135 11.3 17.7 0.00 0.00 0.00 33 1010.7
20260505204516 12 135 11.3 19.3 0.00 0.00 0.00 32 1010.8
20260505203516 12 135 11.3 24.1 0.00 0.00 0.00 33 1010.9
20260505202536 13 135 11.3 19.3 0.00 0.00 0.00 33 1011.0
20260505201516 13 135 11.3 22.5 0.00 0.00 0.00 32 1011.0
20260505200516 12 135 8.0 19.3 0.00 0.00 0.00 34 1011.0
20260505195537 12 135 9.7 16.1 0.00 0.00 0.00 34 1011.2
20260505194516 12 135 8.0 19.3 0.00 0.00 0.00 33 1011.3
20260505193516 12 135 11.3 22.5 0.00 0.00 0.00 32 1011.3
20260505192537 11 135 4.8 12.9 0.00 0.00 0.00 37 1011.2
20260505191516 11 135 12.9 22.5 0.00 0.00 0.00 36 1011.3
20260505190516 11 135 4.8 12.9 0.00 0.00 0.00 37 1011.3
20260505185516 11 135 11.3 19.3 0.00 0.00 0.00 35 1011.4
20260505184516 12 135 11.3 17.7 0.00 0.00 0.00 36 1011.3
20260505183516 12 135 8.0 14.5 0.00 0.00 0.00 37 1011.4
20260505182517 11 135 8.0 14.5 0.00 0.00 0.00 37 1011.3
20260505181517 11 0 9.7 17.7 0.00 0.00 0.00 35 1011.3
20260505180537 11 135 8.0 16.1 0.00 0.00 0.00 39 1011.2
20260505175517 11 135 12.9 24.1 0.00 0.00 0.00 37 1011.3
20260505174516 11 135 11.3 17.7 0.00 0.00 0.00 38 1011.3
20260505173517 11 135 11.3 19.3 0.00 0.00 0.00 36 1011.3
20260505172516 12 135 11.3 19.3 0.00 0.00 0.00 35 1011.3
20260505171516 12 135 9.7 20.9 0.00 0.00 0.00 37 1011.1
20260505170516 12 135 9.7 16.1 0.00 0.00 0.00 35 1011.1
20260505165516 12 135 11.3 17.7 0.00 0.00 0.00 39 1011.1
20260505164516 10 135 9.7 19.3 0.00 0.00 0.00 40 1011.1
20260505163516 10 135 9.7 25.7 0.00 0.00 0.00 39 1011.2
20260505162516 11 135 9.7 19.3 0.00 0.00 0.00 38 1011.1
20260505161517 11 135 8.0 16.1 0.00 0.00 0.00 41 1011.2
20260505160516 10 135 9.7 20.9 0.00 0.00 0.00 43 1011.2
20260505152536 10 135 6.4 14.5 0.00 0.00 0.00 51 1011.2
20260505151516 8 135 4.8 14.5 0.00 0.00 0.00 52 1011.2
20260505150516 8 158 4.8 17.7 0.00 0.00 0.00 50 1011.1
20260505140517 7 135 3.2 11.3 0.00 0.00 0.00 54 1010.6
20260505124516 5 135 1.6 4.8 0.00 0.00 0.00 66 1010.0
20260505123515 4 135 1.6 4.8 0.00 0.00 0.00 69 1009.8
20260505122516 3 135 3.2 4.8 0.00 0.00 0.00 70 1009.8
20260505121516 3 135 3.2 4.8 0.00 0.00 0.00 72 1009.5
20260505120516 2 135 1.6 4.8 0.00 0.00 0.00 73 1009.4
20260505115516 2 135 1.6 3.2 0.00 0.00 0.00 73 1009.2
20260505114515 2 0.0 3.2 0.00 0.00 0.00 73 1008.9
20260505113516 2 0.0 1.6 0.00 0.00 0.00 72 1008.6
20260505112516 2 0.0 0.0 0.00 0.00 0.00 71 1008.6
20260505111516 2 0.0 0.0 0.00 0.00 0.00 71 1008.6
20260505110516 2 0.0 3.2 0.00 0.00 0.00 71 1008.4
20260505101516 2 135 1.6 3.2 0.00 0.00 0.00 70 1008.1
20260505100516 2 135 1.6 3.2 0.00 0.00 0.00 70 1008.3
20260505095515 2 135 1.6 4.8 0.00 0.00 0.00 69 1008.4
20260505094515 2 0.0 0.0 0.00 0.00 0.00 69 1008.4
20260505093515 2 0.0 0.0 0.00 0.00 0.00 68 1008.3
20260505092516 2 0.0 3.2 0.00 0.00 0.00 68 1008.0
20260505091516 3 0.0 0.0 0.00 0.00 0.00 68 1007.9
20260505090515 3 0.0 0.0 0.00 0.00 0.00 68 1007.8
20260505085515 3 0.0 0.0 0.00 0.00 0.00 67 1007.8
20260505084516 3 0.0 0.0 0.00 0.00 0.00 66 1007.8
20260505083516 3 0.0 0.0 0.00 0.00 0.00 65 1007.8
20260505082538 3 0.0 0.0 0.00 0.00 0.00 64 1007.7
20260505081517 3 0.0 0.0 0.00 0.00 0.00 64 1007.6
20260505080517 4 0.0 0.0 0.00 0.00 0.00 63 1007.4
20260505075517 4 135 1.6 3.2 0.00 0.00 0.00 63 1007.4
20260505074515 4 135 1.6 3.2 0.00 0.00 0.00 62 1007.4
20260505073517 4 135 1.6 3.2 0.00 0.00 0.00 61 1007.3
20260505072517 5 0.0 3.2 0.00 0.00 0.00 61 1007.4
20260505071517 5 0.0 3.2 0.00 0.00 0.00 61 1007.4
20260505070518 5 0.0 0.0 0.00 0.00 0.00 60 1007.3
20260505065517 5 0.0 0.0 0.00 0.00 0.00 60 1007.5
20260505064537 5 0.0 0.0 0.00 0.00 0.00 59 1007.6
20260505063518 5 0.0 0.0 0.00 0.00 0.00 58 1007.6
20260505062517 5 0.0 0.0 0.00 0.00 0.00 58 1007.7
20260505061517 5 0.0 0.0 0.00 0.00 0.00 58 1007.5
20260505060537 5 0.0 0.0 0.00 0.00 0.00 57 1007.6
20260505055517 6 0.0 0.0 0.00 0.00 0.00 56 1007.5
20260505054518 6 0.0 0.0 0.00 0.00 0.00 56 1007.4
20260505053538 6 0.0 0.0 0.00 0.00 0.00 55 1007.5
20260505052518 6 0.0 0.0 0.00 0.00 0.00 55 1007.4
20260505051517 6 0.0 3.2 0.00 0.00 0.00 54 1007.4
20260505050517 6 0.0 0.0 0.00 0.00 0.00 54 1007.4
20260505041518 7 0.0 0.0 0.00 0.00 0.00 49 1007.2
20260505040518 7 0.0 1.6 0.00 0.00 0.00 48 1007.1
20260505035518 7 0.0 1.6 0.00 0.00 0.00 47 1007.1
20260505034518 8 0.0 3.2 0.00 0.00 0.00 47 1007.1
20260505033517 8 0.0 3.2 0.00 0.00 0.00 46 1007.1
20260505032517 8 135 3.2 8.0 0.00 0.00 0.00 45 1007.2
20260505031517 8 135 3.2 4.8 0.00 0.00 0.00 45 1007.2
20260505030517 8 158 3.2 8.0 0.00 0.00 0.00 44 1007.0
20260505025517 9 135 3.2 4.8 0.00 0.00 0.00 44 1007.0